Location: Allonne
(49.4086°N, 2.1143°E)
Time: 21:58:34
(UTC+00:00)

BlueWalker 3 - Pass Details

Date: 12 June 2023
Orbit: 492 x 508 km, 53.2° (Epoch: 22 September)

Event Time Altitude Azimuth Distance (km) Brightness Sun altitude
Rises 21:20:20 0° 293° (WNW) 2,581 6.6 -10.0°
Reaches altitude 10° 21:22:33 10° 288° (WNW) 1,698 5.5 -10.2°
Maximum altitude 21:26:15 48° 214° (SSW) 658 2.3 -10.6°
Enters shadow 21:29:04 16° 144° (SE) 1,360 3.5 -10.8°
